Location: West Sayville
(40.7279°N, 73.0976°W)
Time: 06:06:09
(UTC+00:00)

Cosmos 1553 Rocket - Pass Details

Date: 29 October 2020
Orbit: 940 x 1009 km, 82.9° (Epoch: 27 November)

Event Time Altitude Azimuth Distance (km) Brightness Sun altitude
Rises 22:53:09 0° 182° (S) 3,713 7.2 -12.2°
Reaches altitude 10° 22:55:41 10° 181° (S) 2,761 6.5 -12.7°
Maximum altitude 23:02:01 81° 95° (E) 1,005 4.0 -13.8°
Drops below altitude 10° 23:08:18 10° 9° (N) 2,735 6.2 -15.0°
Sets 23:10:48 0° 9° (N) 3,676 6.9 -15.5°
